Time,TemperatureF,DewpointF,PressureIn,WindDirection,WindDirectionDegrees,WindSpeedMPH,WindSpeedGustMPH,Humidity,HourlyPrecipIn,Conditions,Clouds,dailyrainin,SolarRadiationWatts/m^2,SoftwareType,DateUTC
2013-09-24 00:00:00,64.1,56.0,29.69,WNW,293,0.0,0.0,75,0.00,,,0.00,0,Custom,2013-09-24 05:00:00,
2013-09-24 00:05:00,64.2,56.0,29.68,West,263,0.0,0.0,75,0.00,,,0.00,0,Custom,2013-09-24 05:05:00,
2013-09-24 00:10:00,64.4,56.0,29.68,West,277,0.0,0.0,75,0.00,,,0.00,0,Custom,2013-09-24 05:10:00,
2013-09-24 00:15:00,64.5,56.0,29.68,WNW,288,0.0,0.0,74,0.00,,,0.00,0,Custom,2013-09-24 05:15:00,
2013-09-24 00:20:00,64.5,56.0,29.68,WNW,290,0.0,0.0,74,0.00,,,0.00,0,Custom,2013-09-24 05:20:00,
2013-09-24 00:25:00,64.4,56.0,29.68,NW,312,0.0,0.0,75,0.00,,,0.00,0,Custom,2013-09-24 05:25:00,
2013-09-24 00:30:00,64.2,56.0,29.68,WNW,290,0.0,0.0,75,0.00,,,0.00,0,Custom,2013-09-24 05:30:00,
2013-09-24 00:35:00,64.1,56.0,29.68,WNW,289,0.0,0.0,76,0.00,,,0.00,0,Custom,2013-09-24 05:35:00,
2013-09-24 00:40:00,64.2,56.0,29.68,WNW,286,0.0,0.0,76,0.00,,,0.00,0,Custom,2013-09-24 05:40:00,
2013-09-24 00:45:00,63.9,56.0,29.68,WNW,296,0.0,0.0,76,0.00,,,0.00,0,Custom,2013-09-24 05:45:00,
2013-09-24 00:50:00,63.8,56.0,29.68,WNW,297,0.0,0.0,77,0.00,,,0.00,0,Custom,2013-09-24 05:50:00,
2013-09-24 00:55:00,63.8,56.0,29.68,West,281,0.0,0.0,77,0.00,,,0.00,0,Custom,2013-09-24 05:55:00,
2013-09-24 01:00:00,63.9,57.0,29.68,NW,306,0.0,0.0,77,0.00,,,0.00,0,Custom,2013-09-24 06:00:00,
2013-09-24 01:05:00,63.9,56.0,29.68,NW,310,0.0,0.0,77,0.00,,,0.00,0,Custom,2013-09-24 06:05:00,
2013-09-24 01:10:00,64.0,56.0,29.68,WNW,284,0.0,0.0,77,0.00,,,0.00,0,Custom,2013-09-24 06:10:00,
2013-09-24 01:15:00,63.9,57.0,29.68,WNW,287,0.0,0.0,77,0.00,,,0.00,0,Custom,2013-09-24 06:15:00,
2013-09-24 01:20:00,63.8,57.0,29.68,WNW,293,0.0,0.0,78,0.00,,,0.00,0,Custom,2013-09-24 06:20:00,
2013-09-24 01:25:00,63.6,57.0,29.68,WNW,293,0.0,0.0,78,0.00,,,0.00,0,Custom,2013-09-24 06:25:00,
2013-09-24 01:30:00,63.5,56.0,29.68,WNW,295,0.0,0.0,78,0.00,,,0.00,0,Custom,2013-09-24 06:30:00,
2013-09-24 01:35:00,63.3,57.0,29.67,WNW,300,0.0,0.0,79,0.00,,,0.00,0,Custom,2013-09-24 06:35:00,
2013-09-24 01:40:00,63.1,56.0,29.68,WNW,291,0.0,0.0,79,0.00,,,0.00,0,Custom,2013-09-24 06:40:00,
2013-09-24 01:45:00,63.1,56.0,29.68,WNW,290,0.0,0.0,79,0.00,,,0.00,0,Custom,2013-09-24 06:45:00,
2013-09-24 01:50:00,62.9,56.0,29.68,WNW,287,0.0,0.0,79,0.00,,,0.00,0,Custom,2013-09-24 06:50:00,
2013-09-24 01:55:00,62.7,56.0,29.68,WNW,296,0.0,0.0,80,0.00,,,0.00,0,Custom,2013-09-24 06:55:00,
2013-09-24 02:00:00,62.6,56.0,29.68,WNW,289,0.0,0.0,80,0.00,,,0.00,0,Custom,2013-09-24 07:00:00,
2013-09-24 02:05:00,62.3,56.0,29.67,WNW,302,0.0,0.0,81,0.00,,,0.00,0,Custom,2013-09-24 07:05:00,
2013-09-24 02:10:00,62.3,56.0,29.68,WNW,290,0.0,0.0,81,0.00,,,0.00,0,Custom,2013-09-24 07:10:00,
2013-09-24 02:15:00,62.0,56.0,29.67,WNW,302,0.0,0.0,81,0.00,,,0.00,0,Custom,2013-09-24 07:15:00,
2013-09-24 02:20:00,62.0,56.0,29.67,WNW,284,0.0,0.0,81,0.00,,,0.00,0,Custom,2013-09-24 07:20:00,
2013-09-24 02:25:00,62.2,56.0,29.67,WNW,300,0.0,0.0,81,0.00,,,0.00,0,Custom,2013-09-24 07:25:00,
2013-09-24 02:30:00,62.1,56.0,29.67,WNW,294,0.0,0.0,81,0.00,,,0.00,0,Custom,2013-09-24 07:30:00,
2013-09-24 02:35:00,62.0,56.0,29.67,WNW,282,0.0,0.0,82,0.00,,,0.00,0,Custom,2013-09-24 07:35:00,
2013-09-24 02:40:00,61.9,56.0,29.67,WNW,303,0.0,0.0,82,0.00,,,0.00,0,Custom,2013-09-24 07:40:00,
2013-09-24 02:45:00,61.8,56.0,29.67,WSW,255,0.0,0.0,82,0.00,,,0.00,0,Custom,2013-09-24 07:45:00,
2013-09-24 02:50:00,61.9,56.0,29.67,West,268,0.0,0.0,82,0.00,,,0.00,0,Custom,2013-09-24 07:50:00,
2013-09-24 02:55:00,61.7,56.0,29.67,WNW,285,0.0,0.0,82,0.00,,,0.00,0,Custom,2013-09-24 07:55:00,
2013-09-24 03:00:00,61.5,56.0,29.67,WNW,289,0.0,0.0,83,0.00,,,0.00,0,Custom,2013-09-24 08:00:00,
2013-09-24 03:05:00,61.5,56.0,29.67,WNW,290,0.0,0.0,83,0.00,,,0.00,0,Custom,2013-09-24 08:05:00,
2013-09-24 03:10:00,61.7,56.0,29.67,WNW,292,0.0,0.0,82,0.00,,,0.00,0,Custom,2013-09-24 08:10:00,
2013-09-24 03:15:00,61.7,56.0,29.67,WNW,293,0.0,0.0,83,0.00,,,0.00,0,Custom,2013-09-24 08:15:00,
2013-09-24 03:20:00,61.7,56.0,29.67,WNW,302,0.0,0.0,82,0.00,,,0.00,0,Custom,2013-09-24 08:20:00,
2013-09-24 03:25:00,61.7,56.0,29.66,WNW,283,0.0,0.0,83,0.00,,,0.00,0,Custom,2013-09-24 08:25:00,
2013-09-24 03:30:00,62.1,57.0,29.66,WNW,291,0.0,0.0,82,0.00,,,0.00,0,Custom,2013-09-24 08:30:00,
2013-09-24 03:35:00,62.0,56.0,29.66,WNW,285,0.0,0.0,82,0.00,,,0.00,0,Custom,2013-09-24 08:35:00,
2013-09-24 03:40:00,62.1,57.0,29.66,WNW,289,0.0,0.0,82,0.00,,,0.00,0,Custom,2013-09-24 08:40:00,
2013-09-24 03:45:00,62.0,56.0,29.66,WNW,288,0.0,0.0,82,0.00,,,0.00,0,Custom,2013-09-24 08:45:00,
2013-09-24 03:50:00,62.2,57.0,29.66,West,264,0.0,0.0,82,0.00,,,0.00,0,Custom,2013-09-24 08:50:00,
2013-09-24 03:55:00,62.3,56.0,29.66,WNW,289,0.0,0.0,81,0.00,,,0.00,0,Custom,2013-09-24 08:55:00,
2013-09-24 04:00:00,62.2,57.0,29.66,WNW,287,0.0,0.0,82,0.00,,,0.00,0,Custom,2013-09-24 09:00:00,
2013-09-24 04:05:00,62.2,57.0,29.65,WNW,282,0.0,0.0,82,0.00,,,0.00,0,Custom,2013-09-24 09:05:00,
2013-09-24 04:10:00,62.2,56.0,29.66,West,281,0.0,0.0,81,0.00,,,0.00,0,Custom,2013-09-24 09:10:00,
2013-09-24 04:15:00,62.2,56.0,29.66,WNW,287,0.0,0.0,82,0.00,,,0.00,0,Custom,2013-09-24 09:15:00,
2013-09-24 04:20:00,62.2,56.0,29.65,WNW,285,0.0,0.0,81,0.00,,,0.00,0,Custom,2013-09-24 09:20:00,
2013-09-24 04:25:00,62.6,57.0,29.66,WNW,290,0.0,0.0,82,0.00,,,0.00,0,Custom,2013-09-24 09:25:00,
2013-09-24 04:30:00,62.6,57.0,29.65,WNW,285,0.0,0.0,81,0.00,,,0.00,0,Custom,2013-09-24 09:30:00,
2013-09-24 04:35:00,62.6,57.0,29.66,NW,309,0.0,0.0,81,0.00,,,0.00,0,Custom,2013-09-24 09:35:00,
2013-09-24 04:40:00,62.6,57.0,29.66,WNW,285,0.0,0.0,81,0.00,,,0.00,0,Custom,2013-09-24 09:40:00,
2013-09-24 04:45:00,62.4,57.0,29.65,WNW,287,0.0,0.0,82,0.00,,,0.00,0,Custom,2013-09-24 09:45:00,
2013-09-24 04:50:00,62.3,56.0,29.65,WNW,298,0.0,0.0,81,0.00,,,0.00,0,Custom,2013-09-24 09:50:00,
2013-09-24 04:55:00,62.4,57.0,29.65,WNW,287,0.0,0.0,81,0.00,,,0.00,0,Custom,2013-09-24 09:55:00,
2013-09-24 05:00:00,62.3,57.0,29.65,WNW,286,0.0,0.0,82,0.00,,,0.00,0,Custom,2013-09-24 10:00:00,
2013-09-24 05:05:00,62.3,56.0,29.65,NW,309,0.0,0.0,82,0.00,,,0.00,0,Custom,2013-09-24 10:05:00,
2013-09-24 05:10:00,62.3,56.0,29.65,WNW,289,0.0,0.0,81,0.00,,,0.00,0,Custom,2013-09-24 10:10:00,
2013-09-24 05:15:00,62.1,56.0,29.65,West,276,0.0,0.0,81,0.00,,,0.00,0,Custom,2013-09-24 10:15:00,
2013-09-24 05:20:00,62.3,56.0,29.65,NW,306,0.0,0.0,81,0.00,,,0.00,0,Custom,2013-09-24 10:20:00,
2013-09-24 05:25:00,62.2,56.0,29.65,WNW,283,0.0,0.0,81,0.00,,,0.00,0,Custom,2013-09-24 10:25:00,
2013-09-24 05:30:00,62.1,56.0,29.65,WNW,289,0.0,0.0,82,0.00,,,0.00,0,Custom,2013-09-24 10:30:00,
2013-09-24 05:35:00,61.7,56.0,29.65,WNW,291,0.0,0.0,82,0.00,,,0.00,0,Custom,2013-09-24 10:35:00,
2013-09-24 05:40:00,61.5,56.0,29.65,WNW,287,0.0,0.0,82,0.00,,,0.00,0,Custom,2013-09-24 10:40:00,
2013-09-24 05:45:00,61.5,56.0,29.65,West,275,0.0,0.0,83,0.00,,,0.00,0,Custom,2013-09-24 10:45:00,
2013-09-24 05:50:00,61.5,56.0,29.65,WNW,288,0.0,0.0,83,0.00,,,0.00,0,Custom,2013-09-24 10:50:00,
2013-09-24 05:55:00,61.7,56.0,29.65,West,279,0.0,0.0,82,0.00,,,0.00,0,Custom,2013-09-24 10:55:00,
2013-09-24 06:00:00,61.7,56.0,29.64,West,279,0.0,0.0,82,0.00,,,0.00,0,Custom,2013-09-24 11:00:00,
2013-09-24 06:05:00,61.9,56.0,29.65,WNW,289,0.0,0.0,82,0.00,,,0.00,0,Custom,2013-09-24 11:05:00,
2013-09-24 06:10:00,61.8,56.0,29.65,NW,308,0.0,0.0,82,0.00,,,0.00,0,Custom,2013-09-24 11:10:00,
2013-09-24 06:15:00,62.1,56.0,29.65,WNW,286,0.0,0.0,82,0.00,,,0.00,0,Custom,2013-09-24 11:15:00,
2013-09-24 06:20:00,62.0,56.0,29.65,WNW,285,0.0,0.0,82,0.00,,,0.00,0,Custom,2013-09-24 11:20:00,
2013-09-24 06:25:00,61.9,56.0,29.65,WNW,293,0.0,0.0,82,0.00,,,0.00,0,Custom,2013-09-24 11:25:00,
2013-09-24 06:30:00,61.7,56.0,29.65,NW,311,0.0,0.0,82,0.00,,,0.00,0,Custom,2013-09-24 11:30:00,
2013-09-24 06:35:00,61.7,56.0,29.65,WNW,292,0.0,0.0,82,0.00,,,0.00,0,Custom,2013-09-24 11:35:00,
2013-09-24 06:40:00,61.6,56.0,29.65,WNW,290,0.0,0.0,82,0.00,,,0.00,0,Custom,2013-09-24 11:40:00,
2013-09-24 06:45:00,61.5,56.0,29.65,NW,309,0.0,0.0,83,0.00,,,0.00,0,Custom,2013-09-24 11:45:00,
2013-09-24 06:50:00,61.7,56.0,29.65,WNW,286,0.0,0.0,83,0.00,,,0.00,0,Custom,2013-09-24 11:50:00,
2013-09-24 06:55:00,61.5,56.0,29.65,WNW,286,0.0,0.0,83,0.00,,,0.00,0,Custom,2013-09-24 11:55:00,
2013-09-24 07:00:00,61.6,56.0,29.65,West,281,0.0,0.0,83,0.00,,,0.00,0,Custom,2013-09-24 12:00:00,
2013-09-24 07:05:00,61.1,56.0,29.65,WNW,283,0.0,0.0,83,0.00,,,0.00,0,Custom,2013-09-24 12:05:00,
2013-09-24 07:10:00,61.3,56.0,29.65,WNW,287,0.0,0.0,83,0.00,,,0.00,0,Custom,2013-09-24 12:10:00,
2013-09-24 07:15:00,61.2,56.0,29.65,WNW,287,0.0,0.0,83,0.00,,,0.00,7.8,Custom,2013-09-24 12:15:00,
2013-09-24 07:20:00,61.2,56.0,29.65,WNW,287,0.0,0.0,83,0.00,,,0.00,8.19,Custom,2013-09-24 12:20:00,
2013-09-24 07:25:00,61.2,56.0,29.65,WNW,289,0.0,0.0,83,0.00,,,0.00,8.58,Custom,2013-09-24 12:25:00,
2013-09-24 07:30:00,61.2,56.0,29.66,WNW,291,0.0,0.0,83,0.00,,,0.00,8.58,Custom,2013-09-24 12:30:00,
2013-09-24 07:35:00,61.1,56.0,29.66,WNW,291,0.0,0.0,83,0.00,,,0.00,8.97,Custom,2013-09-24 12:35:00,
2013-09-24 07:40:00,61.3,56.0,29.66,WNW,303,0.0,0.0,83,0.00,,,0.00,9.36,Custom,2013-09-24 12:40:00,
2013-09-24 07:45:00,61.3,56.0,29.66,WNW,289,0.0,0.0,83,0.00,,,0.00,8.97,Custom,2013-09-24 12:45:00,
2013-09-24 07:50:00,61.0,56.0,29.66,WNW,288,0.0,0.0,83,0.00,,,0.00,8.58,Custom,2013-09-24 12:50:00,
2013-09-24 07:55:00,60.8,56.0,29.66,WNW,289,0.0,0.0,84,0.00,,,0.00,10.14,Custom,2013-09-24 12:55:00,
2013-09-24 08:00:00,60.7,56.0,29.66,WNW,288,0.0,0.0,84,0.00,,,0.00,14.43,Custom,2013-09-24 13:00:00,
2013-09-24 08:05:00,60.6,56.0,29.66,WNW,289,0.0,0.0,84,0.00,,,0.00,21.45,Custom,2013-09-24 13:05:00,
2013-09-24 08:10:00,60.9,56.0,29.66,NW,306,0.0,0.0,84,0.00,,,0.00,26.13,Custom,2013-09-24 13:10:00,
2013-09-24 08:15:00,61.3,56.0,29.66,WNW,286,0.0,0.0,84,0.00,,,0.00,28.47,Custom,2013-09-24 13:15:00,
2013-09-24 08:21:00,61.4,56.0,29.66,WNW,285,0.0,0.0,83,0.00,,,0.00,29.64,Custom,2013-09-24 13:21:00,
2013-09-24 08:26:00,62.0,57.0,29.66,NW,308,0.0,0.0,83,0.00,,,0.00,31.59,Custom,2013-09-24 13:26:00,
2013-09-24 08:31:00,62.4,57.0,29.66,WNW,288,0.0,0.0,82,0.00,,,0.00,36.66,Custom,2013-09-24 13:31:00,
2013-09-24 08:36:00,63.4,57.0,29.66,WNW,287,0.0,0.0,80,0.00,,,0.00,47.97,Custom,2013-09-24 13:36:00,
2013-09-24 08:41:00,64.8,57.0,29.65,WNW,291,0.0,0.0,77,0.00,,,0.00,174.72,Custom,2013-09-24 13:41:00,
2013-09-24 08:46:00,65.5,57.0,29.65,WNW,289,0.0,0.0,74,0.00,,,0.00,198.12,Custom,2013-09-24 13:46:00,
2013-09-24 08:51:00,66.9,57.0,29.65,WNW,298,0.0,0.0,71,0.00,,,0.00,222.69,Custom,2013-09-24 13:51:00,
2013-09-24 08:56:00,67.5,57.0,29.66,WNW,288,0.0,0.0,69,0.00,,,0.00,239.07,Custom,2013-09-24 13:56:00,
2013-09-24 09:01:00,67.8,57.0,29.66,WNW,294,0.0,0.0,68,0.00,,,0.00,261.3,Custom,2013-09-24 14:01:00,
2013-09-24 09:06:00,68.0,56.0,29.66,WNW,302,0.0,0.0,66,0.00,,,0.00,278.07,Custom,2013-09-24 14:06:00,
2013-09-24 09:11:00,68.3,57.0,29.66,WNW,287,0.0,0.0,66,0.00,,,0.00,294.84,Custom,2013-09-24 14:11:00,
2013-09-24 09:16:00,68.3,57.0,29.65,WNW,290,0.0,0.0,66,0.00,,,0.00,312.78,Custom,2013-09-24 14:16:00,
2013-09-24 09:21:00,69.3,56.0,29.66,WNW,292,0.0,0.0,64,0.00,,,0.00,333.84,Custom,2013-09-24 14:21:00,
2013-09-24 09:26:00,70.1,57.0,29.66,WNW,292,0.0,0.0,63,0.00,,,0.00,347.49,Custom,2013-09-24 14:26:00,
2013-09-24 09:31:00,70.4,57.0,29.66,WNW,290,0.0,0.0,62,0.00,,,0.00,362.7,Custom,2013-09-24 14:31:00,
2013-09-24 09:36:00,70.1,57.0,29.66,WNW,299,0.0,0.0,63,0.00,,,0.00,378.3,Custom,2013-09-24 14:36:00,
2013-09-24 09:41:00,70.8,57.0,29.66,NW,307,0.0,0.0,61,0.00,,,0.00,390.78,Custom,2013-09-24 14:41:00,
2013-09-24 09:46:00,70.9,57.0,29.66,WSW,246,0.0,0.0,61,0.00,,,0.00,409.5,Custom,2013-09-24 14:46:00,
2013-09-24 09:51:00,71.0,57.0,29.67,WNW,300,0.0,0.0,60,0.00,,,0.00,424.71,Custom,2013-09-24 14:51:00,
2013-09-24 09:56:00,71.3,57.0,29.67,West,279,0.0,0.0,61,0.00,,,0.00,437.19,Custom,2013-09-24 14:56:00,
2013-09-24 10:01:00,71.2,57.0,29.67,WSW,251,0.0,0.0,61,0.00,,,0.00,451.23,Custom,2013-09-24 15:01:00,
2013-09-24 10:06:00,72.1,58.0,29.67,West,276,0.0,0.0,61,0.00,,,0.00,464.1,Custom,2013-09-24 15:06:00,
2013-09-24 10:11:00,72.0,57.0,29.67,West,271,0.0,0.0,60,0.00,,,0.00,479.31,Custom,2013-09-24 15:11:00,
2013-09-24 10:16:00,72.6,57.0,29.67,WNW,286,0.0,0.0,59,0.00,,,0.00,501.93,Custom,2013-09-24 15:16:00,
2013-09-24 10:21:00,71.8,58.0,29.67,West,278,0.0,0.0,61,0.00,,,0.00,546,Custom,2013-09-24 15:21:00,
2013-09-24 10:26:00,71.4,58.0,29.67,WNW,303,0.0,0.0,63,0.00,,,0.00,315.12,Custom,2013-09-24 15:26:00,
2013-09-24 10:31:00,71.9,58.0,29.67,West,279,0.0,0.0,62,0.00,,,0.00,640.38,Custom,2013-09-24 15:31:00,
2013-09-24 10:36:00,72.8,57.0,29.67,WNW,303,0.0,0.0,58,0.00,,,0.00,248.82,Custom,2013-09-24 15:36:00,
2013-09-24 10:41:00,70.9,57.0,29.67,West,261,0.0,0.0,61,0.00,,,0.00,173.16,Custom,2013-09-24 15:41:00,
2013-09-24 10:46:00,70.7,58.0,29.67,WNW,285,0.0,0.0,63,0.00,,,0.00,226.59,Custom,2013-09-24 15:46:00,
2013-09-24 10:51:00,71.3,60.0,29.67,West,281,0.0,0.0,67,0.00,,,0.00,193.44,Custom,2013-09-24 15:51:00,
2013-09-24 10:56:00,70.3,57.0,29.68,WSW,237,0.0,0.0,64,0.00,,,0.00,285.48,Custom,2013-09-24 15:56:00,
2013-09-24 11:01:00,70.0,58.0,29.67,West,277,0.0,0.0,66,0.00,,,0.00,214.11,Custom,2013-09-24 16:01:00,
2013-09-24 11:06:00,70.1,58.0,29.67,NW,309,0.0,0.0,66,0.00,,,0.00,278.85,Custom,2013-09-24 16:06:00,
2013-09-24 11:11:00,70.4,58.0,29.68,West,260,0.0,0.0,66,0.00,,,0.00,194.61,Custom,2013-09-24 16:11:00,
2013-09-24 11:16:00,70.1,58.0,29.67,West,260,0.0,0.0,65,0.00,,,0.00,213.72,Custom,2013-09-24 16:16:00,
2013-09-24 11:21:00,70.1,58.0,29.68,West,261,0.0,0.0,66,0.00,,,0.00,195,Custom,2013-09-24 16:21:00,
2013-09-24 11:26:00,69.9,59.0,29.68,West,262,0.0,0.0,68,0.00,,,0.00,140.4,Custom,2013-09-24 16:26:00,
2013-09-24 11:31:00,68.9,58.0,29.68,West,262,0.0,0.0,67,0.00,,,0.00,71.37,Custom,2013-09-24 16:31:00,
2013-09-24 11:36:00,68.1,58.0,29.68,West,262,0.0,0.0,69,0.00,,,0.00,84.63,Custom,2013-09-24 16:36:00,
2013-09-24 11:41:00,67.8,58.0,29.68,West,262,0.0,0.0,71,0.00,,,0.00,114.66,Custom,2013-09-24 16:41:00,
2013-09-24 11:46:00,67.8,58.0,29.68,West,260,0.0,0.0,70,0.00,,,0.00,152.88,Custom,2013-09-24 16:46:00,
2013-09-24 11:51:00,68.4,58.0,29.68,West,260,0.0,0.0,70,0.00,,,0.00,203.58,Custom,2013-09-24 16:51:00,
2013-09-24 11:56:00,68.9,59.0,29.68,West,260,0.0,0.0,70,0.00,,,0.00,206.7,Custom,2013-09-24 16:56:00,
2013-09-24 12:01:00,69.0,58.0,29.69,West,260,0.0,0.0,68,0.00,,,0.00,129.09,Custom,2013-09-24 17:01:00,
2013-09-24 12:06:00,68.5,58.0,29.69,WNW,287,0.0,0.0,70,0.00,,,0.00,150.54,Custom,2013-09-24 17:06:00,
2013-09-24 12:11:00,68.7,58.0,29.69,West,274,0.0,0.0,69,0.00,,,0.00,142.35,Custom,2013-09-24 17:11:00,
2013-09-24 12:16:00,68.4,58.0,29.69,West,270,0.0,0.0,69,0.00,,,0.00,142.74,Custom,2013-09-24 17:16:00,
2013-09-24 12:21:00,68.6,59.0,29.69,West,269,0.0,0.0,70,0.00,,,0.00,127.14,Custom,2013-09-24 17:21:00,
2013-09-24 12:26:00,68.4,58.0,29.69,West,271,0.0,0.0,70,0.00,,,0.00,155.22,Custom,2013-09-24 17:26:00,
2013-09-24 12:31:00,68.7,58.0,29.69,WNW,286,0.0,0.0,70,0.00,,,0.00,162.63,Custom,2013-09-24 17:31:00,
2013-09-24 12:36:00,68.9,59.0,29.69,WNW,284,0.0,0.0,70,0.00,,,0.00,161.07,Custom,2013-09-24 17:36:00,
2013-09-24 12:41:00,68.4,58.0,29.69,WNW,284,0.0,0.0,69,0.00,,,0.00,107.64,Custom,2013-09-24 17:41:00,
2013-09-24 12:46:00,68.2,59.0,29.69,WNW,292,0.0,0.0,72,0.00,,,0.00,96.33,Custom,2013-09-24 17:46:00,
2013-09-24 12:51:00,67.9,59.0,29.69,West,271,0.0,0.0,72,0.00,,,0.00,132.21,Custom,2013-09-24 17:51:00,
2013-09-24 12:56:00,68.8,59.0,29.69,West,271,0.0,0.0,72,0.00,,,0.00,183.3,Custom,2013-09-24 17:56:00,
2013-09-24 13:01:00,69.7,60.0,29.69,West,271,0.0,0.0,72,0.00,,,0.00,203.19,Custom,2013-09-24 18:01:00,
2013-09-24 13:06:00,69.8,60.0,29.69,West,272,0.0,0.0,71,0.00,,,0.00,156,Custom,2013-09-24 18:06:00,
2013-09-24 13:11:00,68.8,58.0,29.69,SSW,205,0.0,0.0,69,0.00,,,0.00,120.12,Custom,2013-09-24 18:11:00,
2013-09-24 13:16:00,68.9,59.0,29.70,SSW,206,0.0,0.0,71,0.00,,,0.00,124.41,Custom,2013-09-24 18:16:00,
2013-09-24 13:21:00,68.8,59.0,29.70,WNW,291,0.0,0.0,71,0.00,,,0.00,179.79,Custom,2013-09-24 18:21:00,
2013-09-24 13:26:00,69.0,59.0,29.70,WNW,291,0.0,0.0,71,0.00,,,0.00,174.72,Custom,2013-09-24 18:26:00,
2013-09-24 13:31:00,69.6,59.0,29.69,West,269,0.0,0.0,70,0.00,,,0.00,117,Custom,2013-09-24 18:31:00,
2013-09-24 13:36:00,69.0,59.0,29.70,West,270,0.0,0.0,71,0.00,,,0.00,79.95,Custom,2013-09-24 18:36:00,
2013-09-24 13:41:00,68.7,59.0,29.70,West,270,0.0,0.0,71,0.00,,,0.00,120.12,Custom,2013-09-24 18:41:00,
2013-09-24 13:46:00,68.6,59.0,29.70,West,270,0.0,0.0,72,0.00,,,0.00,84.63,Custom,2013-09-24 18:46:00,
2013-09-24 13:51:00,68.3,59.0,29.70,West,270,0.0,0.0,72,0.00,,,0.00,49.92,Custom,2013-09-24 18:51:00,
2013-09-24 13:56:00,67.7,58.0,29.69,West,270,0.0,0.0,72,0.00,,,0.00,42.9,Custom,2013-09-24 18:56:00,
2013-09-24 14:01:00,67.4,59.0,29.70,West,260,0.0,0.0,73,0.00,,,0.00,55.38,Custom,2013-09-24 19:01:00,
2013-09-24 14:06:00,67.4,59.0,29.69,WNW,284,0.0,0.0,75,0.00,,,0.00,95.55,Custom,2013-09-24 19:06:00,
2013-09-24 14:11:00,67.8,59.0,29.69,West,259,0.0,0.0,74,0.00,,,0.00,115.83,Custom,2013-09-24 19:11:00,
2013-09-24 14:16:00,68.0,59.0,29.69,West,260,0.0,0.0,73,0.00,,,0.00,104.13,Custom,2013-09-24 19:16:00,
2013-09-24 14:21:00,68.1,59.0,29.69,WNW,284,0.0,0.0,74,0.00,,,0.00,116.61,Custom,2013-09-24 19:21:00,
2013-09-24 14:26:00,68.2,59.0,29.70,WNW,283,0.0,0.0,73,0.00,,,0.00,119.34,Custom,2013-09-24 19:26:00,
2013-09-24 14:31:00,68.0,58.0,29.69,West,260,0.0,0.0,72,0.00,,,0.00,116.22,Custom,2013-09-24 19:31:00,
2013-09-24 14:36:00,68.2,59.0,29.69,West,260,0.0,0.0,73,0.00,,,0.00,138.45,Custom,2013-09-24 19:36:00,
2013-09-24 14:41:00,68.9,60.0,29.69,West,260,0.0,0.0,72,0.00,,,0.00,232.83,Custom,2013-09-24 19:41:00,
2013-09-24 14:46:00,69.5,60.0,29.69,WNW,284,0.0,0.0,71,0.00,,,0.00,240.24,Custom,2013-09-24 19:46:00,
2013-09-24 14:51:00,69.8,60.0,29.69,West,259,0.0,0.0,70,0.00,,,0.00,224.25,Custom,2013-09-24 19:51:00,
2013-09-24 14:56:00,70.3,60.0,29.69,West,260,0.0,0.0,71,0.00,,,0.00,289.77,Custom,2013-09-24 19:56:00,
2013-09-24 15:01:00,70.7,60.0,29.69,WNW,283,0.0,0.0,69,0.00,,,0.00,260.91,Custom,2013-09-24 20:01:00,
2013-09-24 15:06:00,71.3,60.0,29.69,WSW,258,0.0,0.0,68,0.00,,,0.00,286.65,Custom,2013-09-24 20:06:00,
2013-09-24 15:11:00,71.3,60.0,29.69,West,259,0.0,0.0,68,0.00,,,0.00,310.44,Custom,2013-09-24 20:11:00,
2013-09-24 15:16:00,71.9,61.0,29.69,West,259,0.0,0.0,68,0.00,,,0.00,316.68,Custom,2013-09-24 20:16:00,
2013-09-24 15:21:00,71.8,61.0,29.69,West,259,0.0,0.0,68,0.00,,,0.00,244.14,Custom,2013-09-24 20:21:00,
2013-09-24 15:26:00,71.3,60.0,29.69,West,259,0.0,0.0,67,0.00,,,0.00,176.67,Custom,2013-09-24 20:26:00,
2013-09-24 15:31:00,70.6,59.0,29.69,WSW,258,0.0,0.0,67,0.00,,,0.00,140.4,Custom,2013-09-24 20:31:00,
2013-09-24 15:36:00,70.7,60.0,29.69,West,259,0.0,0.0,70,0.00,,,0.00,176.67,Custom,2013-09-24 20:36:00,
2013-09-24 15:41:00,70.4,60.0,29.69,West,259,0.0,0.0,68,0.00,,,0.00,117,Custom,2013-09-24 20:41:00,
2013-09-24 15:46:00,70.1,60.0,29.70,West,259,0.0,0.0,70,0.00,,,0.00,93.6,Custom,2013-09-24 20:46:00,
2013-09-24 15:51:00,70.0,60.0,29.69,West,259,0.0,0.0,71,0.00,,,0.00,99.45,Custom,2013-09-24 20:51:00,
2013-09-24 15:56:00,69.8,60.0,29.69,West,259,0.0,0.0,71,0.00,,,0.00,101.01,Custom,2013-09-24 20:56:00,
2013-09-24 16:01:00,69.3,60.0,29.69,West,259,0.0,0.0,71,0.00,,,0.00,69.81,Custom,2013-09-24 21:01:00,
2013-09-24 16:06:00,68.9,60.0,29.70,West,259,0.0,0.0,72,0.00,,,0.00,30.42,Custom,2013-09-24 21:06:00,
2013-09-24 16:11:00,68.4,60.0,29.70,West,259,0.0,0.0,73,0.00,,,0.00,32.37,Custom,2013-09-24 21:11:00,
2013-09-24 16:16:00,68.3,60.0,29.69,West,259,0.0,0.0,74,0.00,,,0.00,74.1,Custom,2013-09-24 21:16:00,
2013-09-24 16:21:00,68.5,60.0,29.70,West,259,0.0,0.0,74,0.00,,,0.00,81.51,Custom,2013-09-24 21:21:00,
2013-09-24 16:26:00,68.7,60.0,29.70,West,260,0.0,0.0,73,0.00,,,0.00,127.53,Custom,2013-09-24 21:26:00,
2013-09-24 16:31:00,69.1,60.0,29.70,WNW,283,0.0,0.0,74,0.00,,,0.00,110.76,Custom,2013-09-24 21:31:00,
2013-09-24 16:36:00,69.2,60.0,29.70,West,259,0.0,0.0,72,0.00,,,0.00,90.87,Custom,2013-09-24 21:36:00,
2013-09-24 16:41:00,68.9,60.0,29.70,West,259,0.0,0.0,73,0.00,,,0.00,82.68,Custom,2013-09-24 21:41:00,
2013-09-24 16:46:00,68.7,60.0,29.70,West,259,0.0,0.0,73,0.00,,,0.00,88.92,Custom,2013-09-24 21:46:00,
2013-09-24 16:51:00,68.5,60.0,29.71,West,259,0.0,0.0,74,0.00,,,0.00,75.66,Custom,2013-09-24 21:51:00,
2013-09-24 16:56:00,68.8,60.0,29.71,West,259,0.0,0.0,74,0.00,,,0.00,66.69,Custom,2013-09-24 21:56:00,
2013-09-24 17:01:00,68.4,60.0,29.71,West,259,0.0,0.0,74,0.00,,,0.00,75.27,Custom,2013-09-24 22:01:00,
2013-09-24 17:06:00,68.2,60.0,29.71,West,259,0.0,0.0,74,0.00,,,0.00,76.83,Custom,2013-09-24 22:06:00,
2013-09-24 17:11:00,68.1,60.0,29.71,West,259,0.0,0.0,75,0.00,,,0.00,90.48,Custom,2013-09-24 22:11:00,
2013-09-24 17:16:00,68.3,60.0,29.71,West,259,0.0,0.0,75,0.00,,,0.00,65.52,Custom,2013-09-24 22:16:00,
2013-09-24 17:21:00,68.2,60.0,29.71,West,259,0.0,0.0,75,0.00,,,0.00,81.51,Custom,2013-09-24 22:21:00,
2013-09-24 17:26:00,68.6,60.0,29.71,West,259,0.0,0.0,74,0.00,,,0.00,94.77,Custom,2013-09-24 22:26:00,
2013-09-24 17:31:00,69.0,60.0,29.71,West,260,0.0,0.0,73,0.00,,,0.00,85.8,Custom,2013-09-24 22:31:00,
2013-09-24 17:36:00,69.3,60.0,29.71,West,260,0.0,0.0,72,0.00,,,0.00,81.12,Custom,2013-09-24 22:36:00,
2013-09-24 17:41:00,68.9,60.0,29.71,West,259,0.0,0.0,73,0.00,,,0.00,69.42,Custom,2013-09-24 22:41:00,
2013-09-24 17:46:00,68.7,60.0,29.71,West,259,0.0,0.0,73,0.00,,,0.00,58.11,Custom,2013-09-24 22:46:00,
2013-09-24 17:51:00,68.5,60.0,29.71,West,259,0.0,0.0,73,0.00,,,0.00,48.75,Custom,2013-09-24 22:51:00,
2013-09-24 17:56:00,68.3,60.0,29.71,West,259,0.0,0.0,75,0.00,,,0.00,51.87,Custom,2013-09-24 22:56:00,
2013-09-24 18:01:00,68.2,60.0,29.71,West,260,0.0,0.0,75,0.00,,,0.00,76.05,Custom,2013-09-24 23:01:00,
2013-09-24 18:06:00,68.3,60.0,29.71,West,260,0.0,0.0,75,0.00,,,0.00,54.6,Custom,2013-09-24 23:06:00,
2013-09-24 18:11:00,68.3,60.0,29.71,WNW,297,0.0,0.0,74,0.00,,,0.00,42.9,Custom,2013-09-24 23:11:00,
2013-09-24 18:16:00,68.2,60.0,29.71,WNW,297,0.0,0.0,75,0.00,,,0.00,49.92,Custom,2013-09-24 23:16:00,
2013-09-24 18:21:00,68.2,60.0,29.71,WNW,297,0.0,0.0,74,0.00,,,0.00,31.98,Custom,2013-09-24 23:21:00,
2013-09-24 18:26:00,67.9,60.0,29.71,WNW,297,0.0,0.0,75,0.00,,,0.00,22.23,Custom,2013-09-24 23:26:00,
2013-09-24 18:31:00,67.5,60.0,29.71,WNW,297,0.0,0.0,76,0.00,,,0.00,21.06,Custom,2013-09-24 23:31:00,
2013-09-24 18:36:00,67.1,59.0,29.72,WNW,299,0.0,0.0,76,0.00,,,0.00,18.72,Custom,2013-09-24 23:36:00,
2013-09-24 18:41:00,66.8,60.0,29.71,WNW,299,0.0,0.0,77,0.00,,,0.00,15.6,Custom,2013-09-24 23:41:00,
2013-09-24 18:46:00,66.5,59.0,29.71,WNW,299,0.0,0.0,77,0.00,,,0.00,13.26,Custom,2013-09-24 23:46:00,
2013-09-24 18:51:00,66.2,59.0,29.71,WNW,299,0.0,0.0,78,0.00,,,0.00,11.31,Custom,2013-09-24 23:51:00,
2013-09-24 18:56:00,65.8,59.0,29.71,WNW,299,0.0,0.0,79,0.00,,,0.00,8.97,Custom,2013-09-24 23:56:00,
2013-09-24 19:01:00,65.6,59.0,29.71,WNW,299,0.0,0.0,79,0.00,,,0.00,0,Custom,2013-09-25 00:01:00,
2013-09-24 19:06:00,64.9,59.0,29.72,WNW,300,0.0,0.0,80,0.00,,,0.00,0,Custom,2013-09-25 00:06:00,
2013-09-24 19:11:00,64.7,59.0,29.72,WNW,300,0.0,0.0,81,0.00,,,0.00,0,Custom,2013-09-25 00:11:00,
2013-09-24 19:16:00,64.3,59.0,29.72,WNW,300,0.0,0.0,82,0.00,,,0.00,0,Custom,2013-09-25 00:16:00,
2013-09-24 19:21:00,63.7,58.0,29.72,WNW,300,0.0,0.0,83,0.00,,,0.00,0,Custom,2013-09-25 00:21:00,
2013-09-24 19:26:00,63.4,58.0,29.71,NW,315,0.0,0.0,84,0.00,,,0.00,0,Custom,2013-09-25 00:26:00,
2013-09-24 19:31:00,63.0,58.0,29.72,NW,315,0.0,0.0,85,0.00,,,0.00,0,Custom,2013-09-25 00:31:00,
2013-09-24 19:36:00,62.6,58.0,29.72,NW,315,0.0,0.0,86,0.00,,,0.00,0,Custom,2013-09-25 00:36:00,
2013-09-24 19:41:00,62.2,58.0,29.72,NW,315,0.0,0.0,86,0.00,,,0.00,0,Custom,2013-09-25 00:41:00,
2013-09-24 19:46:00,61.8,58.0,29.72,NW,315,0.0,0.0,87,0.00,,,0.00,0,Custom,2013-09-25 00:46:00,
2013-09-24 19:51:00,61.5,58.0,29.72,NW,315,0.0,0.0,87,0.00,,,0.00,0,Custom,2013-09-25 00:51:00,
2013-09-24 19:56:00,61.2,58.0,29.72,NW,315,0.0,0.0,88,0.00,,,0.00,0,Custom,2013-09-25 00:56:00,
2013-09-24 20:01:00,61.0,58.0,29.72,NW,315,0.0,0.0,89,0.00,,,0.00,0,Custom,2013-09-25 01:01:00,
2013-09-24 20:06:00,60.7,57.0,29.72,NW,315,0.0,0.0,89,0.00,,,0.00,0,Custom,2013-09-25 01:06:00,
2013-09-24 20:11:00,60.3,57.0,29.72,NW,316,0.0,0.0,89,0.00,,,0.00,0,Custom,2013-09-25 01:11:00,
2013-09-24 20:16:00,60.1,57.0,29.72,NW,316,0.0,0.0,90,0.00,,,0.00,0,Custom,2013-09-25 01:16:00,
2013-09-24 20:21:00,60.0,57.0,29.72,NW,316,0.0,0.0,90,0.00,,,0.00,0,Custom,2013-09-25 01:21:00,
2013-09-24 20:26:00,59.8,57.0,29.72,NW,316,0.0,0.0,91,0.00,,,0.00,0,Custom,2013-09-25 01:26:00,
2013-09-24 20:31:00,59.9,57.0,29.72,NW,316,0.0,0.0,91,0.00,,,0.00,0,Custom,2013-09-25 01:31:00,
2013-09-24 20:36:00,59.7,57.0,29.72,NW,316,0.0,0.0,91,0.00,,,0.00,0,Custom,2013-09-25 01:36:00,
2013-09-24 20:41:00,59.4,57.0,29.72,NW,317,0.0,0.0,91,0.00,,,0.00,0,Custom,2013-09-25 01:41:00,
2013-09-24 20:46:00,59.5,57.0,29.72,NW,316,0.0,0.0,92,0.00,,,0.00,0,Custom,2013-09-25 01:46:00,
2013-09-24 20:51:00,59.1,57.0,29.72,NW,316,0.0,0.0,92,0.00,,,0.00,0,Custom,2013-09-25 01:51:00,
2013-09-24 20:56:00,58.9,57.0,29.72,NW,316,0.0,0.0,92,0.00,,,0.00,0,Custom,2013-09-25 01:56:00,
2013-09-24 21:02:00,59.0,57.0,29.72,NW,316,0.0,0.0,92,0.00,,,0.00,0,Custom,2013-09-25 02:02:00,
2013-09-24 21:07:00,58.9,57.0,29.72,NW,316,0.0,0.0,93,0.00,,,0.00,0,Custom,2013-09-25 02:07:00,
2013-09-24 21:12:00,58.8,57.0,29.72,NW,317,0.0,0.0,92,0.00,,,0.00,0,Custom,2013-09-25 02:12:00,
2013-09-24 21:17:00,58.7,56.0,29.72,NW,317,0.0,0.0,93,0.00,,,0.00,0,Custom,2013-09-25 02:17:00,
2013-09-24 21:22:00,58.6,56.0,29.72,NW,317,0.0,0.0,93,0.00,,,0.00,0,Custom,2013-09-25 02:22:00,
2013-09-24 21:27:00,58.5,56.0,29.72,NW,316,0.0,0.0,93,0.00,,,0.00,0,Custom,2013-09-25 02:27:00,
2013-09-24 21:32:00,58.5,56.0,29.72,NW,316,0.0,0.0,93,0.00,,,0.00,0,Custom,2013-09-25 02:32:00,
2013-09-24 21:37:00,58.4,56.0,29.72,NW,316,0.0,0.0,93,0.00,,,0.00,0,Custom,2013-09-25 02:37:00,
2013-09-24 21:42:00,58.3,56.0,29.72,NW,316,0.0,0.0,93,0.00,,,0.00,0,Custom,2013-09-25 02:42:00,
2013-09-24 21:47:00,58.0,56.0,29.72,NW,316,0.0,0.0,93,0.00,,,0.00,0,Custom,2013-09-25 02:47:00,
2013-09-24 21:52:00,57.8,56.0,29.72,NW,316,0.0,0.0,93,0.00,,,0.00,0,Custom,2013-09-25 02:52:00,
2013-09-24 21:57:00,57.7,56.0,29.72,NW,316,0.0,0.0,93,0.00,,,0.00,0,Custom,2013-09-25 02:57:00,
2013-09-24 22:02:00,57.7,56.0,29.72,NW,315,0.0,0.0,94,0.00,,,0.00,0,Custom,2013-09-25 03:02:00,
2013-09-24 22:07:00,57.7,56.0,29.72,NW,315,0.0,0.0,93,0.00,,,0.00,0,Custom,2013-09-25 03:07:00,
2013-09-24 22:12:00,57.4,56.0,29.72,NW,315,0.0,0.0,94,0.00,,,0.00,0,Custom,2013-09-25 03:12:00,
2013-09-24 22:17:00,57.2,55.0,29.72,NW,315,0.0,0.0,94,0.00,,,0.00,0,Custom,2013-09-25 03:17:00,
2013-09-24 22:22:00,57.4,56.0,29.72,NW,316,0.0,0.0,94,0.00,,,0.00,0,Custom,2013-09-25 03:22:00,
2013-09-24 22:27:00,57.2,56.0,29.72,NW,316,0.0,0.0,94,0.00,,,0.00,0,Custom,2013-09-25 03:27:00,
2013-09-24 22:32:00,57.2,55.0,29.72,NW,316,0.0,0.0,94,0.00,,,0.00,0,Custom,2013-09-25 03:32:00,
2013-09-24 22:37:00,56.9,55.0,29.72,NW,316,0.0,0.0,94,0.00,,,0.00,0,Custom,2013-09-25 03:37:00,
2013-09-24 22:42:00,56.9,55.0,29.72,NW,316,0.0,0.0,94,0.00,,,0.00,0,Custom,2013-09-25 03:42:00,
2013-09-24 22:47:00,56.7,55.0,29.72,NW,316,0.0,0.0,94,0.00,,,0.00,0,Custom,2013-09-25 03:47:00,
2013-09-24 22:52:00,56.5,55.0,29.72,NW,316,0.0,0.0,94,0.00,,,0.00,0,Custom,2013-09-25 03:52:00,
2013-09-24 22:57:00,56.5,55.0,29.72,NW,316,0.0,0.0,94,0.00,,,0.00,0,Custom,2013-09-25 03:57:00,
2013-09-24 23:01:00,56.5,55.0,29.72,NW,316,0.0,0.0,94,0.00,,,0.00,0,Custom,2013-09-25 04:01:00,
2013-09-24 23:02:00,56.5,55.0,29.72,NW,316,0.0,0.0,94,0.00,,,0.00,0,Custom,2013-09-25 04:02:00,
2013-09-24 23:04:00,56.7,55.0,29.72,NW,316,0.0,0.0,94,0.00,,,0.00,0,Custom,2013-09-25 04:04:00,
2013-09-24 23:09:00,57.8,56.0,29.72,NW,316,0.0,0.0,95,0.00,,,0.00,0,Custom,2013-09-25 04:09:00,
2013-09-24 23:14:00,57.9,56.0,29.72,NW,316,0.0,0.0,95,0.00,,,0.00,0,Custom,2013-09-25 04:14:00,
2013-09-24 23:19:00,58.0,56.0,29.72,NW,316,0.0,0.0,94,0.00,,,0.00,0,Custom,2013-09-25 04:19:00,
2013-09-24 23:24:00,58.2,57.0,29.72,NW,316,0.0,0.0,95,0.00,,,0.00,0,Custom,2013-09-25 04:24:00,
2013-09-24 23:29:00,57.9,56.0,29.72,NW,316,0.0,0.0,95,0.00,,,0.00,0,Custom,2013-09-25 04:29:00,
2013-09-24 23:34:00,58.0,56.0,29.72,NW,316,0.0,0.0,94,0.00,,,0.00,0,Custom,2013-09-25 04:34:00,
2013-09-24 23:39:00,58.3,57.0,29.73,NW,316,0.0,0.0,95,0.00,,,0.00,0,Custom,2013-09-25 04:39:00,
2013-09-24 23:44:00,58.8,58.0,29.72,NW,316,0.0,0.0,95,0.00,,,0.00,0,Custom,2013-09-25 04:44:00,
2013-09-24 23:49:00,59.7,58.0,29.72,North,357,0.0,0.0,95,0.00,,,0.00,0,Custom,2013-09-25 04:49:00,
2013-09-24 23:54:00,59.6,58.0,29.73,North,357,0.0,0.0,95,0.00,,,0.00,0,Custom,2013-09-25 04:54:00,
2013-09-24 23:59:00,59.7,58.0,29.73,North,357,0.0,0.0,95,0.00,,,0.00,0,Custom,2013-09-25 04:59:00,